Regional Weather Roundup
Issued by NWS

Home | Current Version | Previous Version | Text Only | Print | Product List | Glossary On
Versions: 1 2 3 4 5 6 7 8 9 10 11 12 13 14 15 16 17 18 19 20 21 22 23 24 25 26 27 28 29 30 31 32 33 34 35 36 37 38 39 40 41 42 43 44 45 46 47 48 49 50
000
ASUS43 KLSX 121807
RWRMO

WEATHER SUMMARY FOR MISSOURI
NATIONAL WEATHER SERVICE SPRINGFIELD MO
1200 PM CST TUE DEC 12 2017

NOTE: "FAIR" INDICATES FEW OR NO CLOUDS BELOW 12,000 FEET WITH NO
       SIGNIFICANT WEATHER AND/OR OBSTRUCTIONS TO VISIBILITY.
       CURRENT SKY AND/OR WEATHER CONDITIONS ARE NOT AVAILABLE FOR
       CHILLICOTHE AND FARMINGTON.

MOZ001>031-035>038-043-044-053-054-121900-
...NORTHERN AND WESTERN MISSOURI...

CITY           SKY/WX    TMP DP  RH WIND       PRES   REMARKS
KANSAS CTY INT MOSUNNY   32  11  41 W9        30.30F WCI  24
6HR MIN TEMP:  18; 6HR MAX TEMP:  32;

KANSAS C DTWN  SUNNY     34  10  37 W8        30.31F WCI  27
6HR MIN TEMP:  23; 6HR MAX TEMP:  34;

LEE`S SUMMIT   SUNNY     33   7  33 W7        30.30F WCI  27
6HR MIN TEMP:  20; 6HR MAX TEMP:  34;

ST JOSEPH      SUNNY     31  14  49 W10       30.31F WCI  22
6HR MIN TEMP:  14; 6HR MAX TEMP:  31;

CHILLICOTHE      N/A     31   7  36 VRB7      30.29F WCI  24
6HR MIN TEMP:  18; 6HR MAX TEMP:  31;

KIRKSVILLE     SUNNY     29  32 100 CALM      30.25F
6HR MIN TEMP:  17; 6HR MAX TEMP:  29;


$$
MOZ066>068-077>081-088>096-101>105-121900-
...SOUTHWEST MISSOURI...

CITY           SKY/WX    TMP DP  RH WIND       PRES   REMARKS
SPRINGFIELD    SUNNY     36  12  37 NW8       30.28F WCI  30
6HR MIN TEMP:  24; 6HR MAX TEMP:  36;

JOPLIN         SUNNY     36  14  40 N6        30.34F
6HR MIN TEMP:  23; 6HR MAX TEMP:  36;

BRANSON        SUNNY     37  16  41 NW6       30.28F

$$
MOZ032>034-039>042-045>050-055>058-069>072-121900-
...CENTRAL MISSOURI...

CITY           SKY/WX    TMP DP  RH WIND       PRES   REMARKS
COLUMBIA       MOSUNNY   32   9  38 W12       30.26F WCI  23
6HR MIN TEMP:  22; 6HR MAX TEMP:  32;

JEFFERSON CITY MOSUNNY   32  10  40 NW14      30.30F WCI  22
6HR MIN TEMP:  24; 6HR MAX TEMP:  32;

ROLLA          SUNNY     32  10  40 NW13G20   30.25F WCI  22
6HR MIN TEMP:  23; 6HR MAX TEMP:  32;

SEDALIA        SUNNY     33   9  36 NW8       30.31F WCI  26
6HR MIN TEMP:  21; 6HR MAX TEMP:  33;

WHITEMAN AFB   MOSUNNY   32   6  32 NW8       30.26F WCI  25
WARRENSBURG    SUNNY     32   5  32 W6        30.31F WCI  26
OSAGE BEACH    SUNNY     32  12  43 W9        30.30F WCI  24

$$
MOZ051-052-059>065-121900-
...EAST CENTRAL MISSOURI...

CITY           SKY/WX    TMP DP  RH WIND       PRES   REMARKS
ST LOUIS INTL  MOSUNNY   34  10  37 W12       30.21F WCI  25
6HR MIN TEMP:  27; 6HR MAX TEMP:  34;

SPIRIT OF STL  SUNNY     34   8  33 NW14      30.23F WCI  25
6HR MIN TEMP:  27; 6HR MAX TEMP:  34;

ST CHARLES     SUNNY     34   7  32 NW13G23   30.22F WCI  25
6HR MIN TEMP:  28; 6HR MAX TEMP:  34;


$$
MOZ072>076-082>087-097>100-106>115-121900-
...SOUTH CENTRAL AND SOUTHEAST MISSOURI...

CITY           SKY/WX    TMP DP  RH WIND       PRES   REMARKS
CAPE GIRARDEAU SUNNY     38  13  35 N17       30.20F WCI  28
6HR MIN TEMP:  35; 6HR MAX TEMP:  40;

FARMINGTON     SUNNY     35   8  32 NW13G20   30.20F WCI  26
6HR MIN TEMP:  28; 6HR MAX TEMP:  35;

POPLAR BLUFF   SUNNY     43  17  35 N12G18    30.21F
6HR MIN TEMP:  37; 6HR MAX TEMP:  43;

WEST PLAINS    SUNNY     39  11  31 NW10G20   30.24F
6HR MIN TEMP:  27; 6HR MAX TEMP:  39; 6HR PCP: TRACE;


$$


USA.gov is the U.S. government's official web portal to all federal, state and local government web resources and services.